Flag for U.S.A. Weather past 2 weeks in Scranton, Pennsylvania, U.S.A.

Now
31 °F

Mostly cloudy.


Feels Like: 21 °F
Forecast: 24 / 32 °F
Wind: 14 mph from Northeast

Location: Barre - Scranton - Wilkes-Barre / Scranton International Airport

Current Time: Mar 28, 2015 at 1:16:05 AM

Latest Report: Mar 28, 2015 at 12:54 AM


Visibility: 10 mi

Pressure: 29.85 "Hg

Humidity: 64%

Dew point: 20 °F

Location of ScrantonLocation

Historic Weather in Scranton — Graph

°F

Scranton temperature yesterday

Maximum temperature yesterday: 41 °F (at 2:54 PM)
Minimum temperature yesterday: 32 °F (at 11:54 PM)
Average temperature yesterday: 38 °F

Past Weeks' High & Low Weather Summary

 TemperatureHumidityPressure
High60 °F (Mar 26, 2:54 PM)93% (Mar 14, 9:54 AM)30.61 "Hg (Mar 14, 9:54 AM)
Low16 °F (Mar 24, 6:54 AM)17% (Mar 13, 12:54 PM)29.59 "Hg (Mar 17, 6:54 AM)
Average35 °F59%30.07 "Hg
* Reported Mar 12 11:54 PM — Mar 27 11:54 PM, Scranton, Weather by CustomWeather, © 2015

Note: Actual official high and low records may vary slightly from our data, if they occured in-between our weather recording intervals... More about our weather records

Advertising

Scranton weather history for previous 24 hours

 ConditionsComfort  
Time TempWeatherWind HumidityBarometerVisibility
11:54 PM
Fri, Mar 27
32 °FMostly cloudy.9 mph66%29.86 "Hg10 mi
10:54 PM34 °FOvercast.9 mph67%29.85 "Hg10 mi
9:54 PM34 °FOvercast.9 mph70%29.82 "Hg10 mi
8:54 PM36 °FOvercast.9 mph64%29.82 "Hg10 mi
7:54 PM37 °FOvercast.8 mph60%29.79 "Hg10 mi
6:54 PM39 °FOvercast.8 mph55%29.78 "Hg10 mi
5:54 PM41 °FOvercast.8 mph51%29.76 "Hg10 mi
4:54 PM41 °FOvercast.7 mph49%29.75 "Hg10 mi
3:54 PM41 °FOvercast.12 mph51%29.75 "Hg10 mi
2:54 PM41 °FOvercast.9 mph53%29.76 "Hg10 mi
1:54 PM39 °FOvercast.12 mph57%29.78 "Hg10 mi
12:54 PM39 °FMostly cloudy.14 mph57%29.77 "Hg10 mi
11:54 AM39 °FMostly cloudy.12 mph62%29.81 "Hg10 mi
11:03 AM39 °FBroken clouds.13 mph65%29.78 "Hg10 mi
10:54 AM39 °FPartly sunny.13 mph65%29.78 "Hg9 mi
9:54 AM38 °FPassing clouds.10 mph70%29.77 "Hg8 mi
8:54 AM37 °FPassing clouds.13 mph76%29.78 "Hg7 mi
7:54 AM37 °FSunny.7 mph76%29.78 "Hg7 mi
6:54 AM37 °FPartly cloudy.9 mph76%29.80 "Hg8 mi
5:54 AM37 °FPassing clouds.6 mph79%29.79 "Hg8 mi
4:54 AM38 °FLight rain. Overcast.3 mph79%29.77 "Hg9 mi
3:54 AM38 °FMostly cloudy.5 mph79%29.77 "Hg8 mi
2:54 AM38 °FMostly cloudy.7 mph79%29.78 "Hg8 mi
1:54 AM38 °FOvercast.15 mph79%29.77 "Hg10 mi
Weather by CustomWeather, © 2015

See weather overviewHow to use our weather pages